TimePST,TemperatureF,Dew PointF,Humidity,Sea Level PressureIn,VisibilityMPH,Wind Direction,Wind SpeedMPH,Gust SpeedMPH,PrecipitationIn,Events,Conditions,WindDirDegrees,DateUTC
12:15 AM,26.6,10.4,51,30.09,10.0,South,21.9,29.9,N/A,,Scattered Clouds,180,2013-01-07 08:15:00
12:35 AM,26.6,10.4,51,30.09,10.0,South,21.9,27.6,N/A,,Overcast,170,2013-01-07 08:35:00
12:55 AM,28.4,10.4,47,30.08,10.0,South,18.4,31.1,N/A,,Overcast,170,2013-01-07 08:55:00
1:15 AM,28.4,10.4,47,30.07,10.0,South,21.9,28.8,N/A,,Overcast,170,2013-01-07 09:15:00
1:35 AM,26.6,10.4,51,30.07,10.0,South,24.2,33.4,N/A,,Overcast,180,2013-01-07 09:35:00
1:55 AM,28.4,10.4,47,30.08,10.0,South,20.7,29.9,N/A,,Overcast,170,2013-01-07 09:55:00
2:15 AM,28.4,12.2,51,30.08,10.0,South,25.3,29.9,N/A,,Overcast,180,2013-01-07 10:15:00
2:35 AM,26.6,10.4,51,30.09,10.0,South,25.3,29.9,N/A,,Overcast,180,2013-01-07 10:35:00
2:55 AM,26.6,10.4,51,30.09,10.0,South,21.9,26.5,N/A,,Overcast,170,2013-01-07 10:55:00
3:15 AM,26.6,10.4,51,30.08,10.0,South,20.7,32.2,N/A,,Overcast,170,2013-01-07 11:15:00
3:35 AM,28.4,12.2,51,30.08,10.0,South,27.6,33.4,N/A,,Overcast,190,2013-01-07 11:35:00
4:35 AM,24.8,12.2,59,30.07,5.0,South,24.2,33.4,N/A,,Overcast,190,2013-01-07 12:35:00
4:55 AM,24.8,14.0,64,30.07,4.0,South,24.2,32.2,N/A,,Overcast,180,2013-01-07 12:55:00
5:15 AM,24.8,14.0,64,30.06,3.0,South,24.2,32.2,N/A,,Overcast,190,2013-01-07 13:15:00
5:35 AM,24.8,15.8,69,30.06,2.0,South,21.9,28.8,N/A,,Overcast,180,2013-01-07 13:35:00
5:55 AM,24.8,15.8,69,30.07,2.0,South,23.0,29.9,N/A,,Overcast,180,2013-01-07 13:55:00
6:15 AM,26.6,15.8,64,30.06,2.0,South,20.7,28.8,N/A,,Overcast,180,2013-01-07 14:15:00
6:35 AM,26.6,17.6,69,30.05,2.0,South,21.9,27.6,N/A,,Overcast,170,2013-01-07 14:35:00
6:55 AM,24.8,15.8,69,30.04,2.0,SSW,28.8,-,N/A,,Overcast,200,2013-01-07 14:55:00
7:15 AM,26.6,15.8,64,30.03,2.0,South,25.3,35.7,N/A,,Overcast,190,2013-01-07 15:15:00
7:35 AM,26.6,17.6,69,30.04,1.8,South,19.6,29.9,N/A,,Overcast,180,2013-01-07 15:35:00
7:55 AM,26.6,17.6,69,30.03,1.8,South,21.9,29.9,N/A,,Overcast,180,2013-01-07 15:55:00
8:15 AM,24.8,17.6,74,30.04,1.2,South,25.3,32.2,N/A,,Overcast,190,2013-01-07 16:15:00
8:35 AM,24.8,15.8,69,30.04,0.8,South,19.6,29.9,N/A,,Overcast,170,2013-01-07 16:35:00
8:55 AM,24.8,15.8,69,30.07,0.5,South,25.3,28.8,0.18,,Overcast,170,2013-01-07 16:55:00
9:15 AM,24.8,17.6,74,30.06,0.2,South,19.6,28.8,0.46,,Overcast,180,2013-01-07 17:15:00
9:35 AM,24.8,17.6,74,30.07,0.5,South,18.4,29.9,0.84,,Overcast,170,2013-01-07 17:35:00
9:55 AM,24.8,17.6,74,30.07,0.5,South,21.9,32.2,1.38,,Overcast,170,2013-01-07 17:55:00
10:15 AM,24.8,17.6,74,30.07,0.8,South,20.7,29.9,0.26,,Overcast,170,2013-01-07 18:15:00
10:35 AM,24.8,17.6,74,30.07,1.0,South,24.2,31.1,0.26,,Overcast,170,2013-01-07 18:35:00
11:15 AM,24.8,17.6,74,30.07,1.2,South,23.0,32.2,N/A,,Overcast,170,2013-01-07 19:15:00
11:35 AM,26.6,17.6,69,30.06,3.0,South,26.5,35.7,N/A,,Overcast,180,2013-01-07 19:35:00
11:55 AM,26.6,17.6,69,30.04,4.0,South,23.0,32.2,N/A,,Overcast,180,2013-01-07 19:55:00
12:15 PM,26.6,15.8,64,30.05,7.0,South,25.3,33.4,N/A,,Overcast,180,2013-01-07 20:15:00
12:35 PM,26.6,17.6,69,30.04,5.0,South,24.2,35.7,N/A,,Overcast,170,2013-01-07 20:35:00
12:55 PM,26.6,17.6,69,30.04,5.0,South,21.9,31.1,N/A,,Overcast,180,2013-01-07 20:55:00
1:15 PM,26.6,17.6,69,30.04,3.0,South,26.5,31.1,N/A,,Overcast,190,2013-01-07 21:15:00
1:35 PM,28.4,17.6,64,30.04,8.0,South,20.7,28.8,N/A,,Overcast,180,2013-01-07 21:35:00
1:55 PM,28.4,19.4,69,30.03,5.0,South,23.0,29.9,N/A,,Overcast,180,2013-01-07 21:55:00
2:15 PM,28.4,19.4,69,30.04,8.0,South,13.8,24.2,N/A,,Overcast,170,2013-01-07 22:15:00
2:35 PM,30.2,19.4,64,30.05,9.0,South,18.4,21.9,N/A,,Overcast,190,2013-01-07 22:35:00
2:55 PM,28.4,17.6,64,30.05,8.0,South,17.3,-,N/A,,Overcast,180,2013-01-07 22:55:00
3:15 PM,28.4,17.6,64,30.05,9.0,South,20.7,29.9,N/A,,Overcast,180,2013-01-07 23:15:00
3:35 PM,28.4,17.6,64,30.06,8.0,South,23.0,29.9,N/A,,Overcast,190,2013-01-07 23:35:00
3:55 PM,28.4,17.6,64,30.06,9.0,SSW,24.2,31.1,N/A,,Overcast,200,2013-01-07 23:55:00
4:15 PM,28.4,17.6,64,30.06,10.0,South,16.1,25.3,N/A,,Overcast,180,2013-01-08 00:15:00
4:35 PM,28.4,15.8,59,30.06,8.0,South,25.3,32.2,N/A,,Overcast,180,2013-01-08 00:35:00
4:55 PM,26.6,15.8,64,30.06,9.0,South,25.3,32.2,N/A,,Scattered Clouds,180,2013-01-08 00:55:00
5:15 PM,28.4,15.8,59,30.06,10.0,South,23.0,29.9,N/A,,Mostly Cloudy,180,2013-01-08 01:15:00
5:35 PM,28.4,17.6,64,30.07,10.0,South,12.7,21.9,N/A,,Overcast,180,2013-01-08 01:35:00
5:55 PM,28.4,17.6,64,30.07,10.0,South,12.7,19.6,N/A,,Mostly Cloudy,170,2013-01-08 01:55:00
6:15 PM,28.4,17.6,64,30.08,10.0,South,23.0,29.9,N/A,,Partly Cloudy,180,2013-01-08 02:15:00
6:35 PM,28.4,15.8,59,30.07,10.0,South,19.6,23.0,N/A,,Clear,180,2013-01-08 02:35:00
6:55 PM,28.4,17.6,64,30.08,10.0,South,20.7,27.6,N/A,,Mostly Cloudy,190,2013-01-08 02:55:00
7:15 PM,28.4,15.8,59,30.07,10.0,South,23.0,28.8,N/A,,Mostly Cloudy,190,2013-01-08 03:15:00
7:35 PM,28.4,15.8,59,30.08,10.0,South,23.0,-,N/A,,Scattered Clouds,180,2013-01-08 03:35:00
7:55 PM,28.4,17.6,64,30.08,10.0,South,19.6,-,N/A,,Mostly Cloudy,190,2013-01-08 03:55:00
8:15 PM,28.4,17.6,64,30.08,10.0,South,20.7,26.5,N/A,,Mostly Cloudy,180,2013-01-08 04:15:00
8:35 PM,28.4,17.6,64,30.09,10.0,South,15.0,20.7,N/A,,Partly Cloudy,190,2013-01-08 04:35:00
8:55 PM,28.4,17.6,64,30.10,10.0,South,24.2,28.8,N/A,,Mostly Cloudy,190,2013-01-08 04:55:00
9:15 PM,28.4,17.6,64,30.09,10.0,South,23.0,26.5,N/A,,Overcast,190,2013-01-08 05:15:00
9:35 PM,28.4,17.6,64,30.10,10.0,South,20.7,-,N/A,,Overcast,190,2013-01-08 05:35:00
9:55 PM,28.4,17.6,64,30.09,10.0,South,19.6,23.0,N/A,,Overcast,190,2013-01-08 05:55:00
10:15 PM,28.4,17.6,64,30.10,10.0,South,13.8,17.3,N/A,,Overcast,180,2013-01-08 06:15:00
10:55 PM,28.4,17.6,64,30.10,10.0,SSE,16.1,25.3,N/A,,Partly Cloudy,160,2013-01-08 06:55:00
11:15 PM,28.4,17.6,64,30.10,10.0,South,20.7,24.2,N/A,,Clear,170,2013-01-08 07:15:00
11:35 PM,28.4,19.4,69,30.12,10.0,South,15.0,-,N/A,,Mostly Cloudy,180,2013-01-08 07:35:00
11:55 PM,30.2,19.4,64,30.12,10.0,South,15.0,-,N/A,,Overcast,180,2013-01-08 07:55:00